Flag for Norway Weather past 2 weeks in Sarpsborg, Norway

28 °F

Ice fog.

Feels Like: 25 °F
Forecast: 41 / 49 °F
Wind: 3 mph from North

Location: Rygge

Current Time: Nov 26, 2015 at 6:28:41 AM

Latest Report: Nov 26, 2015 at 5:20 AM

Visibility: 0 mi

Pressure: 29.71 "Hg

Humidity: 100%

Dew point: 28 °F

Location of SarpsborgLocation

Historic Weather in Sarpsborg — Graph


Sarpsborg temperature yesterday

Maximum temperature yesterday: 41 °F (at 1:20 AM)
Minimum temperature yesterday: 32 °F (at 3:50 PM)
Average temperature yesterday: 35 °F

Past Weeks' High & Low Weather Summary

High50 °F (Nov 12, 1:50 PM)100% (Nov 12, 3:20 AM)29.98 "Hg (Nov 12, 3:20 AM)
Low14 °F (Nov 23, 1:50 AM)62% (Nov 15, 1:50 PM)29.15 "Hg (Nov 19, 4:20 AM)
Average36 °F90%29.55 "Hg
* Reported Nov 11 4:20 AM — Nov 26 4:50 AM, Sarpsborg, Weather by CustomWeather, © 2015

Note: Actual official high and low records may vary slightly from our data, if they occured in-between our weather recording intervals... More about our weather records


Sarpsborg weather history for previous 24 hours

Time TempWeatherWind HumidityBarometerVisibility
4:50 AM
Thu, Nov 26
28 °FPassing clouds.3 mph100%29.68 "Hg0 mi
3:50 AM30 °FIce fog.6 mph100%29.68 "Hg1 mi
3:20 AM30 °FPassing clouds.5 mph100%29.65 "Hg5 mi
2:50 AM30 °FLow clouds.5 mph100%29.65 "HgN/A
2:20 AM30 °FPassing clouds.5 mph100%29.65 "HgN/A
1:50 AM30 °FLow clouds.6 mph100%29.62 "HgN/A
1:20 AM30 °FLow clouds.5 mph100%29.62 "HgN/A
12:50 AM30 °FLow clouds.5 mph100%29.59 "HgN/A
12:20 AM32 °FLow clouds.6 mph100%29.59 "HgN/A
11:50 PM
Wed, Nov 25
32 °FLow clouds.6 mph100%29.59 "HgN/A
10:50 PM32 °FLow clouds.6 mph100%29.56 "Hg3 mi
10:20 PM32 °FLow clouds.5 mph100%29.56 "Hg2 mi
9:50 PM32 °FLow clouds.6 mph100%29.56 "Hg1 mi
9:20 PM32 °FIce fog.6 mph100%29.53 "Hg1 mi
8:50 PM32 °FIce fog.6 mph100%29.53 "Hg1 mi
8:20 PM32 °FIce fog.5 mph100%29.53 "Hg0 mi
7:50 PM32 °FIce fog.3 mph100%29.50 "Hg1 mi
7:20 PM32 °FIce fog.5 mph100%29.50 "Hg1 mi
6:50 PM32 °FIce fog.5 mph100%29.50 "Hg1 mi
6:20 PM32 °FIce fog.6 mph100%29.47 "Hg0 mi
5:50 PM32 °FIce fog.6 mph100%29.47 "Hg0 mi
5:20 PM32 °FFog.3 mph100%29.47 "Hg0 mi
4:50 PM32 °FFog.3 mph100%29.47 "Hg0 mi
4:20 PM32 °FFog.2 mph100%29.45 "Hg0 mi
3:50 PM32 °FFog.2 mph100%29.45 "Hg0 mi
3:20 PM34 °FFog.2 mph100%29.45 "Hg0 mi
2:50 PM34 °FFog.3 mph100%29.45 "Hg0 mi
2:20 PM34 °FFog.3 mph100%29.42 "Hg0 mi
1:50 PM34 °FDense fog.3 mph100%29.42 "Hg0 mi
1:20 PM34 °FFog.5 mph100%29.42 "Hg0 mi
12:50 PM34 °FFog.2 mph100%29.42 "Hg0 mi
12:20 PM34 °FFog.2 mph100%29.42 "Hg0 mi
11:50 AM34 °FFog.2 mph100%29.42 "Hg0 mi
11:20 AM34 °FFog.5 mph100%29.42 "Hg0 mi
10:50 AM34 °FFog.1 mph100%29.42 "Hg0 mi
10:20 AM34 °FFog.3 mph100%29.42 "Hg0 mi
9:50 AM34 °FFog.2 mph100%29.39 "Hg1 mi
9:20 AM36 °FFog.6 mph93%29.39 "Hg1 mi
8:50 AM36 °FFog.5 mph100%29.39 "Hg0 mi
7:50 AM36 °FFog.5 mph100%29.39 "Hg0 mi
7:20 AM37 °FFog.5 mph93%29.39 "Hg0 mi
6:50 AM37 °FPassing clouds.6 mph100%29.36 "Hg5 mi
6:20 AM37 °FPassing clouds.3 mph100%29.36 "HgN/A
Weather by CustomWeather, © 2015

See weather overviewHow to use our weather pages